Location: Hamburg
(53.5500°N, 10.0000°E)
Time: 15:27:40
(UTC+02:00)

Daily predictions for brighter satellites

Satellite Brightness Start Highest point End
(mag) Time Altitude Azimuth Time Altitude Azimuth Time Altitude Azimuth
SJ-11-01 4.5 20:48:40 10° SE 20:53:15 57° ENE 20:57:52 10° N
Cosmos 2278 3.8 20:51:40 10° S 20:57:11 55° ESE 21:02:46 10° NE
Cosmos 220 Rocket 4.3 20:54:05 10° NNW 20:58:19 69° WSW 21:02:30 10° SSE
Terra 4.0 20:59:12 10° ENE 21:00:56 12° NE 21:02:41 10° NNE
EP 2 4.4 21:03:37 10° SW 21:06:17 65° SE 21:09:30 10° NE
Cosmos 1743 4.0 21:07:21 10° SE 21:10:28 23° E 21:13:35 10° NE
Cosmos 2369 3.7 21:05:35 10° SSW 21:11:11 61° ESE 21:16:49 10° NE
ARGOS 4.2 21:07:43 10° ESE 21:12:19 30° ENE 21:16:56 10° N
Cosmos 1980 Rocket 3.4 21:09:37 10° SSE 21:13:46 21° E 21:17:57 10° NE
Cosmos 2208 Rocket 4.1 21:08:53 10° SSW 21:14:14 85° ESE 21:19:43 10° NNE
Cosmos 2298 Rocket 4.3 21:09:32 10° NNW 21:14:52 74° WSW 21:20:10 10° SSE
CZ-4 DEB 2.7 21:13:13 10° SSE 21:16:23 88° W 21:19:34 10° NNW
Resurs 01 Rocket 4.3 21:13:22 10° SW 21:16:47 21° W 21:20:14 10° NW
ALOS 3.6 21:13:27 10° SSW 21:17:52 41° W 21:22:19 10° NNW
Cosmos 972 Rocket 4.4 21:16:21 10° NNW 21:22:06 87° ENE 21:28:33 10° SSE
Cosmos 1937 Rocket 3.6 21:17:16 10° NNW 21:22:34 90° WSW 21:27:52 10° SSE
Iridium 4 Rocket 3.5 21:18:45 10° N 21:24:04 85° W 21:28:51 10° S
NOSS 2-1 (D) 3.8 21:20:26 10° SW 21:24:31 79° NW 21:29:35 10° NE
NOSS 2-1 (C) 3.8 21:21:27 10° SW 21:25:32 79° NW 21:30:37 10° NE
Envisat 3.0 21:20:50 10° SSE 21:25:55 77° ENE 21:31:02 10° NNW
MetOp-B 4.4 21:22:16 10° SE 21:27:26 52° ENE 21:32:37 10° N
Cosmos 1570 Rocket 4.3 21:23:47 10° SSW 21:29:05 73° WNW 21:34:22 10° NNE
Cosmos 1842 4.1 21:27:19 10° N 21:30:55 33° ENE 21:33:37 15° SE
Meteor 1-12 Rocket 4.3 21:25:22 10° S 21:31:09 87° E 21:37:05 10° NNE
Cosmos 1975 2.9 21:28:09 10° S 21:32:16 89° W 21:36:25 10° N
Cosmos 2173 Rocket 4.2 21:26:15 10° SSE 21:32:22 52° E 21:38:27 10° NNE
Cosmos 2263 Rocket 3.2 21:29:15 10° NNW 21:34:19 34° NE 21:38:44 13° ESE
Lacrosse 5 rocket 3.7 21:33:04 10° WSW 21:34:35 12° SW 21:36:05 10° SSW
Cosmos 2227 Rocket 4.1 21:30:45 10° NW 21:35:29 28° WSW 21:40:12 10° SSW
Cosmos 990 Rocket 4.0 21:30:13 10° NNW 21:35:32 88° ENE 21:40:35 11° SSE
Cosmos 1605 Rocket 4.3 21:30:47 10° SSW 21:37:06 73° WNW 21:43:21 10° N
H-2A R/B 3.3 21:35:17 13° ESE 21:38:34 25° ENE 21:42:33 10° N
Cosmos 1656 3.7 21:34:06 10° SSW 21:39:36 60° ESE 21:45:03 10° NE
EP 1 4.2 21:37:44 10° SW 21:40:19 74° SE 21:43:18 10° NE
Meteor 1-21 4.3 21:34:56 10° N 21:40:43 73° ENE 21:46:29 10° SSE
NOSS 2-1 (E) 4.1 21:37:28 10° WSW 21:41:39 68° NW 21:46:56 10° NE
Cosmos 2100 Rocket 4.0 21:39:20 10° S 21:45:32 67° E 21:51:43 10° NNE
Cosmos 2322 Rocket 3.7 21:45:38 15° ESE 21:46:33 16° E 21:49:49 10° ENE
Tsikada Rocket 4.4 21:40:34 10° N 21:46:52 52° ENE 21:51:58 16° SE
Cosmos 1726 Rocket 4.1 21:46:08 14° SSE 21:49:27 38° E 21:53:33 10° NNE
Cosmos 2297 Rocket 3.9 21:46:04 10° NW 21:50:51 29° WSW 21:55:36 10° SSW
Cosmos 2061 Rocket 4.0 21:45:36 10° S 21:51:50 68° E 21:58:02 10° NNE
Cosmos 2098 Rocket 4.3 21:46:35 10° SSE 21:52:46 41° E 21:57:52 10° NNE
ERS-1 Rocket 3.8 21:50:00 10° S 21:54:53 51° W 21:59:49 10° NNW
Lacrosse 5 3.1 21:50:58 10° WNW 21:55:26 32° SW 21:59:17 13° SSE
Cosmos 1825 Rocket 3.7 21:52:19 10° NNW 21:56:47 76° W 22:01:04 11° S
SPOT 1/Viking Rocket 3.7 21:53:31 17° SE 21:57:27 61° ENE 22:02:36 10° N
Cosmos 2227 4.3 21:51:47 10° NW 21:57:35 77° WSW 22:02:13 16° SSE
Cosmos 1666 3.4 21:56:35 23° SE 21:58:09 33° E 22:01:36 10° NNE
USA 215 3.3 21:53:51 17° ESE 21:59:13 86° SSW 22:05:48 10° WNW
SL-08 RB Rocket 4.1 22:01:06 22° SE 22:03:55 51° ENE 22:08:26 10° N
Cosmos 1953 Rocket 3.7 22:02:25 10° NNW 22:06:54 80° W 22:10:33 15° S
Cosmos 1939 Rocket 4.1 22:03:06 10° S 22:07:02 41° W 22:11:01 10° NNW
Cosmos 1125 Rocket 3.5 22:01:53 10° NNW 22:07:08 73° ENE 22:10:27 23° SE
SPOT 5 3.0 22:02:45 13° S 22:07:17 75° WSW 22:12:04 10° NNW
Cosmos 1763 Rocket 3.7 22:02:56 10° S 22:07:45 44° ESE 22:12:34 10° NE
Cosmos 1500 3.9 22:05:25 10° SSW 22:09:06 54° WNW 22:12:51 10° N
MetOp-A 4.3 22:09:11 14° S 22:13:53 75° WSW 22:19:17 10° NNW
Cosmos 1340 3.4 22:10:29 10° NNW 22:14:11 51° W 22:17:12 15° S
H-2A R/B 2.8 22:12:12 12° S 22:15:53 49° W 22:19:58 10° NNW
Cosmos 1459 Rocket 4.0 22:12:14 10° SSW 22:18:18 82° WNW 22:24:29 10° N
Cosmos 1725 Rocket 4.1 22:14:20 16° SSE 22:19:16 57° E 22:25:24 10° NNE
IGS 5A 4.4 22:18:47 25° ESE 22:20:13 33° ENE 22:23:57 10° N
Cosmos 2278 Rocket 4.3 22:16:33 10° NNW 22:20:30 19° NNE 22:24:26 10° ENE
Landsat 7 4.1 22:20:04 28° SE 22:22:24 55° ENE 22:27:04 10° N
SL-19 R/B 4.3 22:17:13 10° NNE 22:22:40 51° E 22:26:07 21° S
Cosmos 468 Rocket 4.0 22:18:00 10° SSW 22:23:08 80° WNW 22:28:19 10° NNE
YAOGAN 6 3.1 22:20:52 21° S 22:23:12 59° W 22:26:54 10° NNW
ATLAS CENTAUR R/B 4.0 22:21:33 10° WNW 22:25:39 25° NNW 22:29:36 10° NE
Cosmos 1758 Rocket 3.9 22:21:22 10° NNW 22:25:42 61° W 22:28:47 18° S
deb Chang Zheng 4 3.6 22:21:30 10° NNE 22:26:00 85° WNW 22:30:27 10° SSW
Cosmos 405 Rocket 2.8 22:24:21 10° N 22:28:07 55° ENE 22:29:08 40° SE
Cosmos 2228 3.2 22:27:13 33° SSE 22:28:42 49° E 22:32:52 10° NNE
RESURS DK-1 4.5 22:26:18 10° WNW 22:29:26 21° WSW 22:32:34 10° SSW
GP-B 4.0 22:25:33 10° NNE 22:29:32 31° E 22:30:24 28° ESE
Cosmos 841 Rocket 3.5 22:25:03 11° S 22:30:01 59° ESE 22:35:09 10° NNE
Genesis I 3.7 22:26:43 10° NW 22:30:37 51° NE 22:32:06 32° E
CZ-4 R/B 4.3 22:28:30 10° NNE 22:32:57 39° E 22:34:12 33° SE
Cosmos 1814 Rocket 4.1 22:28:02 10° SSW 22:33:23 79° WNW 22:38:42 10° NNE
Cosmos 1697 Rocket 2.8 22:28:31 10° SW 22:34:11 81° WNW 22:39:53 10° NNE
PSLV R/B 4.4 22:36:21 25° SSW 22:37:35 37° W 22:40:30 10° NNW
Terra 2.1 22:35:52 33° SE 22:37:43 55° ENE 22:42:23 10° N
CZ-4C R/B 3.7 22:36:46 37° SE 22:38:22 62° ENE 22:42:43 10° N
SL-16 R/B 2.8 22:40:53 32° SE 22:42:12 36° ESE 22:47:21 10° NE
NOAA 11 4.4 22:40:39 23° S 22:44:10 68° WSW 22:49:40 10° NNW
Cosmos 2233 Rocket 4.1 22:41:34 28° SSE 22:44:44 56° E 22:50:50 10° NNE
Cosmos 1743 4.0 22:42:25 10° SW 22:46:08 40° WNW 22:49:52 10° N
Cosmos 1844 Rocket 3.9 22:41:51 10° NNW 22:46:49 31° NE 22:49:54 19° E
Cosmos 540 Rocket 4.0 22:46:25 35° ESE 22:47:03 36° ESE 22:51:44 10° NE
ASTEX 1 3.9 22:44:41 10° N 22:49:38 59° WNW 22:54:06 12° SSW
ARGOS 3.5 22:48:58 23° S 22:52:16 60° WSW 22:57:39 10° NNW
Cosmos 372 Rocket 3.9 22:48:13 10° NNW 22:53:22 79° WSW 22:55:25 37° SSE
SAR-Lupe-2 4.5 22:55:16 35° ENE 22:55:22 35° ENE 22:58:40 10° N
Cosmos 2058 Rocket 3.3 22:53:15 21° SSW 22:56:16 70° WNW 23:00:48 10° N
Cosmos 1980 Rocket 2.2 22:51:25 10° SSW 22:57:07 84° WNW 23:02:53 10° NNE
Cosmos 2360 Rocket 3.6 22:58:52 21° E 22:58:52 21° E 23:02:18 10° NE
Spot 4 3.9 23:00:22 44° SE 23:01:43 66° ENE 23:06:29 10° N
BREEZE-M DEB (TANK) 4.3 22:47:01 10° WNW 23:06:07 49° SW 23:08:48 33° SSE
Meteor 2-5 Rocket 3.8 23:02:39 10° NNW 23:08:39 90° WSW 23:11:03 38° SSE
DELTA 2 DEB (DPAF) 4.3 23:07:56 44° S 23:09:16 70° WSW 23:13:46 10° NNW
CARTOSAT-1 3.6 23:13:14 52° S 23:14:11 74° WSW 23:18:33 10° NNW
H-2A R/B 2.2 23:15:55 38° SSW 23:17:40 63° WSW 23:22:34 10° NNW
Cosmos 1707 2.6 23:14:24 10° N 23:18:21 90° ENE 23:18:33 80° SSE
Cosmos 2263 Rocket 2.3 23:13:07 10° NW 23:18:39 63° WSW 23:20:25 42° S
CZ-4B R/B 3.4 23:14:14 10° NNE 23:19:00 75° WNW 23:21:17 31° SSW
Cosmos 1076 Rocket 4.1 23:17:06 10° N 23:21:10 41° ENE 23:21:17 41° ENE
Meteor 1-24 Rocket 3.8 23:22:50 10° NNW 23:28:57 81° ENE 23:30:48 47° SSE
Cosmos 1464 Rocket 4.2 23:27:21 44° SE 23:29:05 57° E 23:35:18 10° NNE
Cosmos 2322 Rocket 2.0 23:27:23 37° SSW 23:29:42 77° ESE 23:35:21 10° NE
Cosmos 1766 Rocket 4.1 23:27:28 10° N 23:31:49 46° ENE 23:32:01 46° E
Cosmos 2322 4.4 23:33:06 35° E 23:33:06 35° E 23:37:48 10° NE
Cosmos 1812 Rocket 3.5 23:35:28 68° SSW 23:36:00 82° WNW 23:40:23 10° N
GEOS 3 Rocket 3.5 23:31:13 10° NE 23:36:16 58° SE 23:36:32 57° SE
Cosmos 1538 Rocket 4.5 23:37:40 44° E 23:37:40 44° E 23:42:36 10° NE
Nadezhda 4 Rocket 4.2 23:32:41 10° N 23:38:56 57° ENE 23:40:39 44° SE
Cosmos 1378 3.5 23:38:17 10° N 23:41:37 62° NNE 23:41:37 62° NNE
Cosmos 783 Rocket 4.4 23:40:50 49° SSW 23:42:18 87° ESE 23:47:38 10° NNE
USA 215 3.9 23:41:12 35° SSW 23:42:44 39° SW 23:48:50 10° WNW
Lacrosse 4 Rocket 3.7 23:49:21 16° ENE 23:49:21 16° ENE 23:50:32 10° ENE
COSMOS 2428 3.9 23:55:02 26° E 23:55:02 26° E 23:58:48 10° NE
CRYOSAT 2 4.3 23:49:53 10° N 23:54:50 84° W 23:55:26 69° SSW
CZ-4B R/B 3.4 23:57:08 24° NE 23:57:08 24° NE 23:59:33 10° N
